Portada
METAR-TAF:

METAR-TAF

Aeroports :

Cuenca, Equador

latitud: 02-53-22S, longitud: 078-59-04W, altitud: 2532 m

Observació

L'informe es va fer fa 43 minuts, a les 18:00 UTC
Vent 5 kt del Sud/Sud-Oest
Temperatura 20°C
Humitat 56%
Pressió 1023 hPa
Visibilitat 10 km o més
Cel ennuvolat a una alçada de 4000 ft

METAR: SECU 241800Z 20005KT 9999 BKN040 20/11 Q1023

Hora: 13:43 (18:43 UTC)


TAF: manca

Observacions i pronòstics meteorològics de més de 4000 aeroports (METAR i TAF).

Les estacions disponibles són els punts grocs i vermells al mapa.

Posi el ratolí al punt desitjat per veure el nom de l'estació.

Feu clic per veure les observacions i els pronòstics meteorològics.

Per canviar el mapa: feu clic els botons verds amb una creu de color negre per apropar; al botó verd amb un guió per allunyar la imatge; o en les fletxes verdes per a mapes adjacents.


METAR-TAF: